Dewpoint
63 65 69 68 69 71 71 72 72 72 71 72 71 71 71 71 71 71 70 70 71 70 69 69 70 69 68 68 68 69 70 71 71 70 69 68 68 68 68 68 69 63 71
65 65 69 68 68 70 71 71 71 73 70 70 71 71 70 70 70 69 69 69 68 68 68 68 69 69 68 69 70 70 70 70 70 70 70 68 67 67 67 68 68 64 70
65 62 62 68 67 68 70 70 71 71 71 71 70 71 70 69 66 68 68 67 68 69 67 69 69 69 69 70 70 70 70 70 70 70 70 61 62 67 66 67 66 69 70
65 63 61 68 67 67 68 69 70 70 70 71 71 70 70 69 66 64 64 63 67 68 69 67 68 68 69 70 70 70 70 69 70 69 62 58 60 68 66 66 66 67 68
63 62 64 69 68 68 67 68 68 69 69 69 70 70 69 69 65 63 63 65 67 69 69 68 67 69 69 69 68 70 70 69 69 66 58 57 55 66 67 66 66 68 68
64 64 66 68 68 66 64 65 67 67 67 68 69 70 69 68 66 64 63 67 68 68 68 68 68 68 68 67 68 67 69 69 68 61 55 59 58 68 68 68 69 68 68
64 65 66 68 68 67 65 64 66 67 67 67 68 69 68 68 68 67 67 67 68 67 67 66 67 67 66 67 67 67 68 68 64 57 54 55 58 68 67 68 68 68 68
60 63 65 67 68 67 66 66 66 66 66 67 66 67 67 67 67 66 67 68 67 66 67 68 67 66 65 65 65 66 66 67 62 57 53 54 66 68 67 67 68 67 67
58 60 61 62 65 66 65 64 64 65 65 66 67 67 67 67 67 66 64 64 65 65 65 65 66 65 63 64 64 65 65 65 62 60 53 54 67 68 67 67 68 67 67
59 58 59 60 60 62 62 62 63 64 64 65 66 65 65 66 65 63 62 61 61 61 60 63 64 64 64 64 64 64 63 64 61 57 58 57 67 65 66 66 67 67 67
54 56 61 61 62 61 57 56 63 65 63 64 64 63 62 63 63 62 61 61 60 60 59 60 57 62 63 63 63 63 63 57 57 60 60 64 64 62 63 66 66 66 66
48 48 52 60 62 61 55 56 61 62 61 61 61 62 60 62 62 61 62 61 61 60 59 58 57 57 62 61 60 60 53 53 56 57 56 64 63 62 62 65 65 65 65
45 46 50 56 60 62 59 59 62 61 61 60 61 60 62 60 61 61 62 61 62 59 60 57 57 57 57 58 60 61 55 55 54 55 56 62 64 62 62 63 65 64 65
42 44 46 54 59 58 56 56 57 56 56 55 59 60 60 58 60 61 60 59 61 61 59 58 58 58 57 57 58 60 60 59 59 60 59 58 62 61 61 63 63 64 65
39 43 43 49 54 57 55 53 53 51 50 51 51 54 54 54 57 58 57 56 56 57 59 59 58 57 59 59 60 59 59 60 60 59 58 57 58 58 58 60 63 63 64
36 40 41 45 48 50 51 52 49 48 45 45 48 51 55 54 57 56 55 55 54 58 60 61 61 60 60 60 59 60 61 60 60 59 57 58 58 58 57 56 61 63 63
35 37 39 41 44 46 46 43 40 38 41 43 47 51 51 50 52 50 48 48 50 54 56 56 55 58 60 60 60 60 59 60 60 60 58 58 58 56 57 57 57 62 64
34 34 35 25 37 39 40 38 35 36 39 42 45 46 47 47 46 47 46 46 46 47 48 49 51 53 55 57 56 58 58 58 57 57 59 59 58 56 55 56 57 57 62
34 33 33 33 34 36 37 34 39 41 36 38 41 40 43 41 41 40 41 42 42 39 39 37 37 43 44 47 50 50 52 58 58 57 57 59 59 58 55 54 56 57 58
35 34 33 33 34 35 33 36 35 36 36 37 36 36 39 37 37 37 37 40 39 36 37 38 38 36 36 39 39 38 46 56 59 58 58 57 57 58 57 56 52 53 56
36 34 32 33 34 32 31 31 32 34 35 35 34 35 37 34 36 38 34 35 37 36 38 40 38 38 35 35 37 39 37 44 52 57 59 58 58 57 57 57 58 54 50
35 35 32 32 33 33 30 31 32 33 31 33 34 37 38 38 37 36 36 35 36 35 39 39 39 36 36 37 33 33 33 36 41 48 53 57 58 57 56 56 57 56 53
38 37 34 31 32 33 34 29 31 33 33 30 31 33 37 40 39 39 38 37 38 38 36 39 38 37 33 37 40 32 29 31 37 34 44 48 55 58 58 56 56 56 55
38 39 37 35 32 32 34 32 35 29 27 29 31 29 29 34 37 38 38 37 38 38 39 40 35 40 40 35 37 33 40 35 30 31 33 35 47 48 54 57 55 55 55
37 39 40 37 35 33 33 37 36 36 35 31 32 34 35 36 36 35 36 37 38 37 39 42 43 43 39 39 37 36 38 36 37 34 30 31 34 43 53 52 53 57 55
37 40 41 38 35 34 34 34 39 39 37 34 36 35 37 36 36 35 31 35 36 36 36 39 42 41 41 40 39 38 37 35 32 33 32 33 31 35 37 45 50 54 56
Lifted_Index
-7 -6 -5 -5 -6 -7 -7 -8 -8 -8 -8 -7 -7 -6 -6 -5 -5 -5 -5 -5 -5 -5 -5 -6 -6 -5 -5 -4 -4 -4 -5 -5 -5 -4 -3 -3 -3 -3 -3 -2 -2 -2 -3
-7 -7 -6 -5 -6 -7 -8 -8 -8 -8 -8 -8 -7 -6 -6 -5 -5 -5 -4 -4 -4 -5 -5 -6 -6 -6 -5 -5 -5 -5 -5 -5 -5 -4 -3 -3 -2 -2 -3 -2 -2 -2 -3
-7 -7 -6 -5 -5 -6 -7 -8 -8 -8 -8 -8 -7 -7 -6 -5 -4 -3 -3 -2 -3 -4 -5 -5 -6 -6 -6 -6 -5 -5 -5 -5 -5 -4 -3 -2 -2 -2 -2 -2 -2 -2 -3
-7 -6 -6 -5 -5 -6 -6 -7 -7 -7 -7 -7 -7 -7 -6 -5 -3 -3 -2 -1 -2 -3 -4 -5 -5 -6 -6 -6 -6 -5 -5 -5 -5 -4 -3 -2 -2 -3 -2 -2 -2 -3 -3
-7 -6 -6 -6 -5 -5 -5 -6 -6 -6 -6 -6 -7 -6 -6 -5 -4 -3 -2 -2 -3 -4 -4 -4 -4 -5 -5 -5 -6 -6 -5 -5 -4 -3 -2 -2 -2 -3 -3 -3 -3 -3 -3
-7 -7 -6 -6 -6 -5 -5 -5 -5 -6 -6 -6 -6 -6 -6 -6 -5 -4 -3 -3 -4 -4 -3 -3 -4 -4 -4 -5 -5 -5 -5 -5 -4 -2 -1 -1 -2 -3 -4 -4 -3 -3 -3
-7 -7 -6 -6 -6 -5 -5 -4 -5 -5 -5 -5 -5 -6 -6 -5 -5 -5 -4 -4 -4 -4 -3 -4 -4 -4 -4 -4 -4 -5 -5 -5 -4 -2 -1 -1 -2 -4 -4 -4 -4 -3 -3
-7 -7 -7 -6 -6 -5 -4 -4 -4 -4 -4 -5 -5 -5 -5 -5 -5 -4 -4 -4 -4 -4 -4 -4 -4 -4 -3 -3 -4 -4 -4 -4 -3 -2 -1 -1 -3 -4 -4 -4 -4 -3 -3
-6 -6 -6 -6 -5 -5 -4 -3 -3 -3 -3 -4 -4 -5 -5 -5 -4 -4 -3 -3 -3 -3 -4 -3 -3 -3 -3 -3 -3 -3 -3 -3 -3 -2 -1 -1 -3 -4 -4 -4 -3 -3 -2
-5 -5 -6 -6 -5 -5 -4 -2 -2 -2 -3 -3 -4 -4 -4 -4 -4 -3 -2 -2 -2 -2 -2 -2 -2 -2 -2 -2 -2 -2 -2 -2 -2 -2 -2 -2 -2 -3 -4 -4 -3 -3 -2
-4 -4 -4 -5 -5 -4 -3 -2 -2 -3 -3 -3 -3 -3 -3 -3 -3 -2 -2 -1 -1 -1 -1 -1 -1 -1 -2 -2 -1 -1 -1 -1 -1 -2 -2 -2 -2 -2 -3 -3 -3 -3 -2
-1 -1 -2 -3 -4 -4 -3 -2 -3 -4 -3 -3 -3 -3 -3 -2 -2 -2 -1 -1 -1 -1 -0 -0 -0 0 -0 -1 -1 -0 0 1 -0 -1 -1 -1 -1 -2 -2 -2 -3 -2 -2
1 1 0 -1 -3 -3 -3 -3 -3 -3 -3 -3 -3 -3 -2 -2 -2 -2 -2 -1 -1 0 1 1 2 2 3 2 1 1 1 1 1 0 0 -0 -1 -1 -1 -2 -2 -2 -2
2 2 2 0 -1 -2 -2 -2 -2 -1 -1 -1 -1 -1 -1 -1 -1 -1 -1 -1 -0 1 1 2 3 4 4 3 2 2 1 1 0 1 1 1 0 -0 -0 -1 -2 -2 -2
3 3 3 2 1 0 -0 0 1 2 2 2 2 1 1 1 0 0 1 1 1 1 1 1 2 3 3 2 2 2 1 0 0 1 1 2 1 1 1 0 -1 -1 -1
5 5 4 4 3 2 2 3 4 5 5 5 5 4 3 3 2 2 3 3 3 2 1 1 1 1 1 0 1 1 1 0 -0 0 1 1 1 1 1 1 0 -1 -1
6 5 6 5 5 5 5 5 6 7 7 6 6 5 5 5 5 5 5 5 5 4 4 3 2 1 0 -1 -1 -0 -0 -0 -0 -0 0 1 1 1 2 2 1 1 -0
6 6 7 7 7 7 7 7 8 8 8 7 7 7 7 7 7 7 7 7 7 7 7 6 6 4 3 1 0 -0 -1 -1 -1 -1 -0 0 0 1 2 2 2 2 2
7 7 8 8 9 9 9 9 8 8 8 8 8 8 8 9 9 9 9 8 8 9 9 9 9 8 6 5 4 3 1 -0 -1 -1 -1 -1 -1 0 1 2 3 4 4
8 8 9 9 9 10 10 10 9 9 9 9 9 9 10 10 10 10 10 9 10 10 10 10 10 10 9 8 7 7 5 2 -0 -1 -2 -2 -1 -1 0 1 2 3 4
8 9 9 10 10 10 10 10 10 10 10 9 10 10 10 10 10 10 10 10 10 10 10 10 10 10 10 10 10 9 8 5 2 0 -1 -1 -1 -1 -0 0 1 2 3
8 9 9 10 10 10 11 11 10 10 10 10 10 10 10 10 9 9 9 10 10 10 10 10 10 10 10 10 10 10 9 7 5 3 1 0 -1 -1 -1 -0 1 1 2
8 8 9 9 10 10 10 10 10 10 10 10 10 10 9 9 9 9 9 9 9 9 9 10 10 10 10 10 10 10 10 9 8 7 5 3 2 1 -0 0 1 1 2
7 7 8 9 9 10 10 10 10 10 9 9 9 9 9 9 9 9 9 9 9 9 9 9 9 9 9 9 9 9 9 9 9 9 8 7 5 3 2 1 1 1 1
7 7 7 8 8 9 9 9 9 9 9 8 8 9 9 9 8 9 9 9 9 9 9 8 8 8 8 8 8 8 8 9 9 9 9 9 8 6 4 3 2 1 1
7 7 7 8 8 9 9 9 9 9 9 8 8 8 8 8 8 8 9 9 9 9 9 8 8 7 7 7 7 7 8 8 8 9 9 9 8 7 6 5 4 2 1